Aérodrome :
LOGIN :

S'inscrire | Disclaimer

   EN    FR    IT 

 










Légende :    VFR   VFR Marginal   IFR   IFR Intensif   IFR Très Intensif
Visi : 
Plafond : 
>= 8 km
>= 3000ft
5 à 8 km
1000 à 3000 ft
1500m à 5 km
500 à 1000 ft
800 à 1500m
200 à 500 ft
< 800m
< 200 ft
Symboles :   Orages  Brouillard  Fortes neiges  Fortes précipitations  Vent > 20 kt
SIGMETs :   Divers  Orages  Givrage  Turbulence  Onde Orograph.  Cendres Volcan.






- Altitude de l'aérodrome : 126 ft
- Code IATA : TIA


LATI - Rinas Mother Teresa Arpt - Tirana

DERNIER METAR :
  • 242220Z VRB02KT 6000 NSC 04/03 Q1021 NOSIG

METARs EXPIRÉS :
  • 242150Z VRB01KT 6000 MIFG NSC 04/03 Q1021 NOSIG
  • 242120Z 00000KT 6000 MIFG NSC 05/05 Q1021 NOSIG
  • 242050Z VRB02KT 6000 NSC 06/05 Q1021 NOSIG
  • 242020Z VRB02KT 6000 NSC 05/04 Q1021 NOSIG
  • 241950Z VRB01KT 6000 NSC 06/05 Q1021 NOSIG

TAF TAF LATI
Valide du 24 à 18h jusqu'au 25 à 18h UTC


241700Z 2418/2518 VRB05KT CAVOK TX19/2512Z TN01/2505Z



MET'MAP, la Météo Aéronautique d'un coup d'oeil ! - Copyright ORBIFLY Décembre 2007 - Disclaimer

ORBIFLY MET'MAP TEAM :

Programmation & Développement : Alexandra Zaïnal
Sur une idée originale de : Baudouin d'Aumeries
Assistance à la programmation : Marc-Olivier Méhu
Soutien technique & logistique : Manuel Goepfert

Contact : metmap@orbifly.com




SOURCES & CREDITS :

   NOAA